Hourly Data Report for October 24, 2016

All times are specified in Local Standard Time (LST). Add 1 hour to adjust for Daylight Saving Time where and when it is observed.

GJOA HAVEN A
NUNAVUT

68°38'08.000" N
95°51'01.000" W
46.90 m
2302337
71597
YHK

Download Data

Hourly Data (October 2016)
Hourly Data Report for October 24, 2016
Temp Definition
°C
Dew Point Temp Definition
°C
Rel Hum Definition
%
Wind Dir Definition
10's deg

Wind Spd Definition
km/h
Visibility Definition
km
Stn Press Definition
kPa
Hmdx Definition


Wind Chill Definition


Weather Definition


TIME
00:00 Legend Double Dagger -5.9 -6.6 95 22 17 9.7 102.69   -12 Snow
01:00 Legend Double Dagger -6.0 -6.5 96 23 17 16.1 102.70   -12 Snow
02:00 Legend Double Dagger -6.2 -6.7 96 23 13 6.4 102.70   -12 Snow
03:00 Legend Double Dagger -6.7 -7.1 97 24 13 12.9 102.69   -12 Snow
04:00 Legend Double Dagger -7.2 -7.5 98 23 11 16.1 102.70   -12 Snow
05:00 Legend Double Dagger -7.0 -7.3 98 22 11 16.1 102.67   -12 Snow
06:00 Legend Double Dagger -6.3 -6.7 97 24 13 6.4 102.64   -12 Snow
07:00 Legend Double Dagger -7.6 -8.0 97 24 13 16.1 102.64   -13 Snow
08:00 Legend Double Dagger -7.8 -8.2 97 25 15 16.1 102.63   -14 Snow
09:00 Legend Double Dagger -7.2 -7.6 97 24 13 9.7 102.62   -13 Snow
10:00 Legend Double Dagger -7.3 -7.7 97 24 13 8.1 102.60   -13 Snow
11:00 Legend Double Dagger -7.4 -7.9 96 24 11 14.5 102.58   -12 Snow
12:00 Legend Double Dagger -7.2 -7.6 97 23 13 11.3 102.57   -13 Snow
13:00 Legend Double Dagger -7.0 -7.5 96 23 9 14.5 102.58   -11 Snow
14:00 Legend Double Dagger -6.7 -7.1 97 27 9 14.5 102.55   -11 Snow
15:00 Legend Double Dagger -6.8 -7.2 97 29 5 16.1 102.54   -9 Snow
16:00 Legend Double Dagger -7.0 -7.4 97 36 13 16.1 102.54   -13 Snow
17:00 Legend Double Dagger -7.3 -7.8 96 36 13 16.1 102.54   -13 Snow
18:00 Legend Double Dagger -7.7 -8.2 96 1 13 4.8 102.50   -13 Snow
19:00 Legend Double Dagger -7.9 -8.4 96 1 13 1.0 102.48   -14 Snow
20:00 Legend Double Dagger -7.0 -7.5 96 4 15 1.6 102.45   -13 Snow
21:00 Legend Double Dagger -7.0 -7.4 97 2 11 0.8 102.43   -12 Freezing Rain,Moderate Snow
22:00 Legend Double Dagger -8.0 -8.7 95 1 13 16.1 102.41   -14 Snow
23:00 Legend Double Dagger -8.8 -9.5 95 36 15 9.7 102.39   -15 Snow

Notes on Data Quality.

Legend

  • E = Estimated
  • M = Missing
  • NA = Not Available
  • ‡ = Partner data that is not subject to review by the National Climate Archives
Date modified: